1504879200.35,13068,17.19,73706.5,10.53,-27.45,-27.29,0,*4C
1504879201.61,13069,17.19,73704.8,10.53,-26.71,-26.39,0,*4B
1504879202.81,13070,17.19,73702.8,10.51,-26.45,-26.07,0,*4B
1504879204.04,13071,17.19,73704.5,10.51,-26.61,-26.29,0,*40
1504879205.3,13072,17.19,73704.8,10.51,-26.29,-25.97,0,*49
1504879206.53,13073,17.19,73702.5,10.51,-26.13,-25.91,0,*47
1504879207.81,13074,17.19,73706.5,10.53,-25.71,-25.45,0,*4C
1504879209.06,13075,17.19,73710.3,10.53,-25.29,-24.93,0,*4A
1504879210.31,13076,17.19,73710.3,10.53,-24.87,-24.61,0,*41
1504879211.57,13077,17.19,73704.3,10.55,-24.71,-24.25,0,*4F
1504879212.81,13078,17.19,73702.5,10.57,-25.87,-25.65,0,*4F
1504879214.04,13079,17.19,73704.5,10.57,-25.49,-25.19,0,*47
1504879215.26,13080,17.19,73708.8,10.57,-26.23,-25.87,0,*49
1504879216.48,13081,17.19,73708.8,10.57,-26.23,-26.03,0,*47
1504879217.73,13082,17.19,73710.3,10.57,-26.23,-25.97,0,*4A
1504879218.99,13083,17.19,73706.3,10.57,-26.17,-25.87,0,*4D
1504879220.25,13084,17.19,73706.3,10.55,-26.97,-26.81,0,*45
1504879221.53,13085,17.19,73704.0,10.57,-26.97,-27.23,0,*4F
1504879222.76,13086,17.19,73704.0,10.53,-27.89,-27.71,0,*41
1504879223.99,13087,17.19,73702.8,10.51,-27.13,-26.97,0,*48
1504879225.19,13088,17.19,73708.0,10.51,-27.13,-27.07,0,*4F
1504879226.44,13089,17.19,73708.8,10.53,-27.55,-27.39,0,*43
1504879227.71,13090,17.19,73706.3,10.49,-27.19,-26.93,0,*49
1504879228.97,13091,17.19,73708.3,10.49,-26.61,-26.33,0,*4C
1504879230.23,13092,17.19,73710.0,10.49,-26.49,-26.33,0,*45
1504879231.46,13093,17.19,73708.8,10.47,-27.83,-27.71,0,*4A
1504879232.69,13094,17.19,73706.0,10.47,-28.31,-28.05,0,*47
1504879233.94,13095,17.19,73708.0,10.45,-27.55,-27.39,0,*49
1504879235.17,13096,17.19,73706.5,10.45,-27.71,-27.55,0,*46
1504879236.45,13097,17.19,73708.3,10.41,-27.39,-27.23,0,*4E
1504879237.73,13098,17.19,73710.5,10.41,-28.59,-28.59,0,*4A
1504879238.96,13099,17.19,73708.0,10.39,-28.63,-28.53,0,*47
1504879240.24,13100,17.19,73710.8,10.37,-28.43,-28.47,0,*4F
1504879241.47,13101,17.19,73704.5,10.37,-27.93,-27.93,0,*4A
1504879242.74,13102,17.19,73704.3,10.37,-27.61,-27.29,0,*45
1504879243.97,13103,17.19,73702.0,10.35,-27.29,-27.13,0,*43
1504879245.19,13104,17.19,73700.0,10.35,-27.03,-26.87,0,*40
1504879246.41,13105,17.19,73698.8,10.33,-26.87,-26.71,0,*43
1504879247.67,13106,17.19,73696.5,10.35,-26.17,-25.87,0,*45
1504879248.89,13107,17.19,73698.5,10.33,-25.65,-25.29,0,*40
1504879250.14,13108,17.19,73692.3,10.35,-25.35,-25.03,0,*44
1504879251.37,13109,17.19,73698.0,10.35,-25.49,-25.35,0,*4B
1504879252.63,13110,17.19,73698.0,10.37,-27.29,-26.97,0,*4E
1504879253.89,13111,17.19,73700.5,10.37,-28.31,-28.09,0,*40
1504879255.13,13112,17.19,73700.8,10.35,-27.35,-27.13,0,*4E
1504879256.36,13113,17.19,73700.3,10.33,-28.05,-27.71,0,*41
1504879257.64,13114,17.19,73698.0,10.35,-27.35,-26.97,0,*45
1504879258.92,13115,17.19,73692.5,10.35,-25.97,-25.71,0,*45
1504879260.18,13116,17.19,73696.8,10.35,-25.97,-25.65,0,*43
1504879261.42,13117,17.19,73698.5,10.39,-26.77,-26.49,0,*4E
1504879262.68,13118,17.19,73692.5,10.35,-28.91,-28.85,0,*45
1504879263.9,13119,17.19,73692.5,10.33,-27.55,-27.19,0,*4F
1504879265.16,13120,17.19,73690.0,10.35,-25.71,-25.39,0,*47
1504879266.39,13121,17.19,73686.8,10.35,-25.49,-25.19,0,*4F
1504879267.64,13122,17.19,73694.3,10.35,-24.97,-24.83,0,*4C
1504879268.84,13123,17.19,73692.5,10.39,-25.35,-25.13,0,*40
1504879270.13,13124,17.19,73694.5,10.37,-26.33,-26.13,0,*4F
1504879271.37,13125,17.19,73690.5,10.37,-27.51,-27.29,0,*43
1504879272.62,13126,17.19,73694.5,10.37,-27.35,-27.13,0,*4B
1504879273.88,13127,17.19,73692.8,10.37,-26.97,-26.45,0,*41
1504879275.14,13128,17.19,73692.5,10.35,-25.71,-25.39,0,*4F
1504879276.36,13129,17.19,73698.0,10.37,-25.23,-24.93,0,*4A
1504879277.57,13130,17.19,73698.8,10.39,-25.35,-25.09,0,*49
1504879278.77,13131,17.19,73696.5,10.39,-25.09,-24.77,0,*4F
1504879280.01,13132,17.19,73696.3,10.39,-25.81,-25.65,0,*4E
1504879281.26,13133,17.19,73696.5,10.41,-25.45,-25.23,0,*4A
1504879282.48,13134,17.19,73702.8,10.45,-25.35,-25.23,0,*4E
1504879283.73,13135,17.19,73700.3,10.41,-25.91,-25.71,0,*42
1504879284.99,13136,17.19,73706.8,10.41,-25.29,-25.09,0,*4D
1504879286.25,13137,17.19,73700.8,10.45,-25.55,-25.35,0,*4C
1504879287.47,13138,17.19,73702.5,10.45,-25.49,-25.35,0,*4E
1504879288.72,13139,17.19,73700.8,10.47,-26.03,-25.71,0,*40
1504879289.99,13140,17.19,73702.0,10.47,-26.17,-25.71,0,*4B
1504879291.23,13141,17.19,73702.3,10.47,-25.87,-25.55,0,*46
1504879292.46,13142,17.19,73704.8,10.47,-26.49,-26.17,0,*41
1504879293.69,13143,17.19,73702.8,10.47,-27.39,-27.13,0,*43
1504879294.93,13144,17.25,73708.8,10.47,-26.97,-26.65,0,*41
1504879296.16,13145,17.19,73702.0,10.47,-26.87,-26.81,0,*4B
1504879297.42,13146,17.19,73706.5,10.47,-26.81,-26.55,0,*47
1504879298.65,13147,17.19,73704.8,10.45,-27.89,-27.67,0,*4D
1504879299.88,13148,17.19,73704.0,10.45,-26.65,-26.49,0,*4C
1504879301.11,13149,17.19,73702.3,10.45,-25.65,-25.39,0,*4A
1504879302.37,13150,17.19,73706.0,10.45,-26.03,-25.81,0,*42
1504879303.65,13151,17.19,73702.0,10.41,-25.55,-25.03,0,*4D
1504879304.92,13152,17.19,73706.0,10.45,-25.03,-24.83,0,*40
1504879306.18,13153,17.19,73706.5,10.47,-24.87,-24.71,0,*43
1504879307.44,13154,17.19,73706.5,10.49,-24.47,-24.15,0,*44
1504879308.7,13155,17.19,73710.0,10.49,-24.83,-24.61,0,*4E
1504879309.93,13156,17.19,73706.5,10.53,-25.39,-25.13,0,*42
1504879311.16,13157,17.19,73706.8,10.53,-25.39,-25.13,0,*43
1504879312.4,13158,17.19,73706.5,10.55,-24.87,-24.67,0,*4C
1504879313.67,13159,17.19,73706.3,10.53,-24.71,-24.47,0,*40
1504879314.93,13160,17.19,73710.0,10.57,-24.51,-24.21,0,*4C
1504879316.21,13161,17.19,73706.5,10.57,-24.25,-23.95,0,*46
1504879317.44,13162,17.19,73710.8,10.59,-24.47,-24.15,0,*40
1504879318.64,13163,17.19,73708.0,10.59,-24.77,-24.47,0,*45
1504879319.88,13164,17.19,73708.0,10.59,-24.51,-24.21,0,*46
1504879321.13,13165,17.19,73708.0,10.61,-24.47,-24.15,0,*4C
1504879322.39,13166,17.25,73710.0,10.63,-24.41,-23.99,0,*48
1504879323.63,13167,17.19,73710.3,10.67,-24.11,-23.69,0,*47
1504879324.83,13168,17.19,73708.0,10.67,-23.89,-23.59,0,*4D
1504879326.03,13169,17.19,73710.3,10.69,-24.77,-24.51,0,*4B
1504879327.28,13170,17.19,73710.8,10.69,-25.03,-24.67,0,*44
1504879328.55,13171,17.19,73708.5,10.71,-25.29,-25.03,0,*47
1504879329.75,13172,17.25,73712.3,10.69,-24.97,-24.77,0,*4B
1504879330.98,13173,17.19,73712.8,10.73,-25.61,-25.55,0,*48
1504879332.2,13174,17.19,73710.8,10.73,-25.29,-24.97,0,*4C
1504879333.45,13175,17.25,73712.3,10.71,-24.67,-24.51,0,*4E
1504879334.7,13176,17.19,73714.8,10.71,-25.35,-25.03,0,*4D
1504879335.98,13177,17.19,73712.5,10.71,-25.29,-24.87,0,*4C
1504879337.2,13178,17.19,73710.0,10.73,-24.83,-24.47,0,*4C
1504879338.43,13179,17.19,73710.3,10.73,-25.45,-25.09,0,*4D
1504879339.64,13180,17.25,73714.0,10.73,-25.23,-24.83,0,*48
1504879340.84,13181,17.19,73714.8,10.73,-25.13,-24.93,0,*4B
1504879342.07,13182,17.19,73712.3,10.73,-26.07,-25.81,0,*4C
1504879343.29,13183,17.19,73708.8,10.77,-25.87,-25.55,0,*4B
1504879344.52,13184,17.19,73712.3,10.75,-25.61,-25.39,0,*4C
1504879345.77,13185,17.19,73712.3,10.75,-24.97,-24.83,0,*45
1504879347.02,13186,17.19,73712.3,10.75,-25.55,-25.23,0,*42
1504879348.24,13187,17.25,73712.0,10.77,-25.23,-24.87,0,*4F
1504879349.47,13188,17.19,73714.0,10.79,-24.61,-24.31,0,*44
1504879350.67,13189,17.19,73710.0,10.77,-24.93,-24.67,0,*45
1504879351.92,13190,17.25,73712.5,10.79,-25.45,-25.19,0,*41
1504879353.11,13191,17.19,73710.5,10.77,-25.23,-24.97,0,*49
1504879354.33,13192,17.19,73708.5,10.79,-25.61,-25.35,0,*4B
1504879355.59,13193,17.19,73708.8,10.79,-26.03,-25.71,0,*4D
1504879356.86,13194,17.19,73710.5,10.79,-26.33,-26.03,0,*4F
1504879358.13,13195,17.19,73710.5,10.79,-26.17,-25.81,0,*41
1504879359.38,13196,17.19,73708.8,10.79,-25.29,-25.13,0,*47
1504879360.66,13197,17.25,73708.0,10.79,-25.03,-24.83,0,*46
1504879361.88,13198,17.19,73706.5,10.81,-25.49,-25.29,0,*41
1504879363.12,13199,17.19,73704.3,10.81,-24.71,-24.51,0,*44
1504879364.31,13200,17.25,73710.8,10.81,-24.97,-24.51,0,*4F
1504879365.54,13201,17.25,73710.0,10.81,-24.83,-24.61,0,*48
1504879366.79,13202,17.19,73704.3,10.81,-26.33,-26.17,0,*41
1504879368.05,13203,17.19,73706.8,10.81,-26.33,-26.29,0,*4D
1504879369.24,13204,17.19,73704.3,10.81,-26.87,-26.49,0,*43
1504879370.46,13205,17.19,73702.5,10.81,-26.71,-26.45,0,*47
1504879371.69,13206,17.19,73706.3,10.81,-26.17,-26.03,0,*46
1504879372.92,13207,17.25,73710.3,10.79,-27.03,-26.87,0,*48
1504879374.17,13208,17.19,73704.5,10.79,-26.61,-26.33,0,*4D
1504879375.37,13209,17.19,73706.0,10.77,-26.39,-26.07,0,*48
1504879376.63,13210,17.25,73708.0,10.79,-26.03,-25.71,0,*45
1504879377.88,13211,17.19,73706.8,10.79,-26.13,-25.87,0,*4C
1504879379.16,13212,17.25,73706.5,10.79,-26.33,-26.17,0,*47
1504879380.41,13213,17.25,73708.3,10.77,-27.23,-26.93,0,*44
1504879381.64,13214,17.25,73708.5,10.77,-26.65,-26.33,0,*4A
1504879382.92,13215,17.19,73704.8,10.75,-25.97,-25.71,0,*42
1504879384.17,13216,17.25,73706.3,10.75,-25.61,-25.29,0,*45
1504879385.4,13217,17.19,73706.0,10.79,-25.61,-25.35,0,*45
1504879386.59,13218,17.19,73700.5,10.77,-25.91,-25.65,0,*4E
1504879387.83,13219,17.19,73700.0,10.79,-25.61,-25.49,0,*40
1504879389.07,13220,17.25,73704.0,10.79,-25.45,-25.19,0,*49
1504879390.32,13221,17.19,73700.0,10.77,-26.33,-26.17,0,*49
1504879391.54,13222,17.25,73706.0,10.77,-27.19,-27.03,0,*47
1504879392.76,13223,17.25,73702.8,10.77,-27.03,-26.71,0,*49
1504879393.95,13224,17.19,73700.5,10.77,-26.23,-26.03,0,*48
1504879395.21,13225,17.25,73702.8,10.77,-25.71,-25.55,0,*4D
1504879396.4,13226,17.25,73708.0,10.77,-26.07,-25.91,0,*44
1504879397.66,13227,17.25,73706.8,10.75,-26.81,-26.61,0,*45
1504879398.88,13228,17.25,73704.0,10.77,-27.19,-27.03,0,*4D
1504879400.1,13229,17.25,73706.0,10.75,-27.93,-27.89,0,*4E
1504879401.33,13230,17.19,73706.0,10.75,-27.71,-27.71,0,*4D
1504879402.58,13231,17.25,73706.3,10.73,-28.75,-28.59,0,*44
1504879403.78,13232,17.25,73698.3,10.69,-28.85,-28.85,0,*42
1504879405.0,13233,17.25,73702.5,10.67,-29.23,-29.13,0,*4E
1504879406.25,13234,17.25,73702.8,10.63,-28.63,-28.43,0,*4C
1504879407.52,13235,17.25,73700.3,10.61,-28.79,-28.79,0,*4D
1504879408.78,13236,17.25,73700.3,10.59,-28.47,-28.21,0,*45
1504879410.0,13237,17.25,73696.5,10.59,-27.67,-27.45,0,*44
1504879411.25,13238,17.25,73698.0,10.57,-28.85,-28.75,0,*4A
1504879412.48,13239,17.25,73700.5,10.55,-28.75,-28.69,0,*4B
1504879413.74,13240,17.25,73704.0,10.55,-28.59,-28.59,0,*48
1504879414.99,13241,17.25,73704.8,10.51,-28.47,-28.25,0,*49
1504879416.21,13242,17.25,73704.0,10.51,-27.13,-26.93,0,*47
1504879417.42,13243,17.25,73708.3,10.51,-28.69,-28.69,0,*4F
1504879418.68,13244,17.25,73706.3,10.51,-29.35,-29.35,0,*48
1504879419.89,13245,17.25,73706.5,10.47,-28.15,-27.89,0,*44
1504879421.12,13246,17.25,73706.3,10.47,-28.43,-28.37,0,*4E
1504879422.32,13247,17.25,73704.0,10.47,-27.51,-27.55,0,*48
1504879423.58,13248,17.25,73706.5,10.47,-26.81,-26.55,0,*4A
1504879424.79,13249,17.25,73704.3,10.47,-26.39,-26.23,0,*49
1504879426.0,13250,17.25,73698.5,10.47,-27.67,-27.51,0,*4F
1504879427.23,13251,17.25,73698.5,10.45,-28.53,-28.37,0,*4B
1504879428.45,13252,17.25,73696.3,10.41,-27.89,-27.71,0,*49
1504879429.72,13253,17.25,73698.3,10.41,-27.61,-27.29,0,*43
1504879430.95,13254,17.25,73696.3,10.41,-26.61,-26.39,0,*45
1504879432.19,13255,17.25,73696.0,10.45,-26.65,-26.39,0,*44
1504879433.47,13256,17.25,73696.8,10.45,-26.13,-25.81,0,*46
1504879434.71,13257,17.25,73696.8,10.47,-25.81,-25.49,0,*49
1504879435.91,13258,17.25,73692.8,10.47,-25.49,-25.19,0,*47
1504879437.17,13259,17.25,73696.0,10.47,-25.03,-24.71,0,*47
1504879438.42,13260,17.25,73692.3,10.49,-24.97,-24.83,0,*42
1504879439.65,13261,17.25,73692.0,10.51,-26.77,-26.49,0,*42
1504879440.89,13262,17.25,73698.3,10.51,-26.81,-26.61,0,*42
1504879442.15,13263,17.25,73690.0,10.51,-26.33,-25.97,0,*40
1504879443.38,13264,17.25,73690.5,10.51,-25.65,-25.45,0,*48
1504879444.63,13265,17.25,73688.5,10.53,-26.55,-26.39,0,*43
1504879445.88,13266,17.25,73692.0,10.51,-27.19,-27.19,0,*48
1504879447.11,13267,17.25,73694.3,10.51,-26.81,-26.65,0,*43
1504879448.32,13268,17.25,73694.3,10.51,-27.67,-27.51,0,*43
1504879449.55,13269,17.25,73694.3,10.51,-26.77,-26.61,0,*40
1504879450.76,13270,17.19,73690.5,10.51,-27.29,-27.07,0,*43
1504879452.03,13271,17.25,73696.0,10.49,-27.19,-26.97,0,*40
1504879453.27,13272,17.25,73694.0,10.47,-27.51,-27.39,0,*44
1504879454.53,13273,17.25,73696.0,10.47,-26.77,-26.33,0,*4B
1504879455.77,13274,17.25,73698.0,10.47,-26.39,-26.13,0,*44
1504879457.02,13275,17.25,73696.3,10.49,-26.49,-26.17,0,*48
1504879458.28,13276,17.25,73698.8,10.49,-27.07,-26.93,0,*4C
1504879459.51,13277,17.25,73696.0,10.49,-28.69,-28.53,0,*48
1504879460.76,13278,17.25,73696.8,10.47,-27.19,-26.97,0,*47
1504879461.97,13279,17.25,73700.0,10.47,-26.49,-26.23,0,*4D
1504879463.23,13280,17.25,73702.5,10.47,-26.13,-25.81,0,*4F
1504879464.46,13281,17.25,73696.5,10.47,-25.81,-25.65,0,*4C
1504879465.75,13282,17.25,73694.8,10.49,-26.17,-25.81,0,*47
1504879467.0,13283,17.25,73696.3,10.49,-28.37,-28.47,0,*4D
1504879468.24,13284,17.25,73702.8,10.47,-29.01,-28.85,0,*4E
1504879469.45,13285,17.25,73704.5,10.47,-28.31,-28.15,0,*44
1504879470.7,13286,17.25,73700.0,10.41,-28.97,-28.79,0,*47
1504879471.95,13287,17.25,73694.0,10.41,-29.45,-29.39,0,*4D
1504879473.21,13288,17.25,73698.8,10.37,-28.53,-28.43,0,*49
1504879474.46,13289,17.25,73692.8,10.37,-27.83,-27.67,0,*43
1504879475.7,13290,17.25,73694.3,10.37,-27.51,-27.29,0,*4E
1504879476.98,13291,17.25,73696.3,10.37,-26.93,-26.71,0,*4C
1504879478.24,13292,17.25,73696.3,10.37,-26.33,-26.07,0,*44
1504879479.48,13293,17.25,73696.0,10.39,-25.91,-25.75,0,*46
1504879480.74,13294,17.25,73694.3,10.37,-25.81,-25.61,0,*4B
1504879481.98,13295,17.25,73696.3,10.39,-26.65,-26.33,0,*49
1504879483.24,13296,17.25,73702.5,10.37,-26.61,-26.33,0,*40
1504879484.5,13297,17.25,73700.8,10.39,-26.29,-25.97,0,*4E
1504879485.74,13298,17.25,73702.0,10.39,-26.61,-26.33,0,*40
1504879486.97,13299,17.25,73702.3,10.39,-26.45,-26.13,0,*45
1504879488.23,13300,17.25,73696.3,10.37,-26.23,-25.97,0,*45
1504879489.48,13301,17.25,73700.0,10.41,-26.45,-26.17,0,*4E
1504879490.71,13302,17.25,73700.0,10.45,-25.65,-25.49,0,*40
1504879491.94,13303,17.25,73702.5,10.45,-26.23,-26.03,0,*4D
1504879493.18,13304,17.25,73702.5,10.41,-26.03,-25.61,0,*4B
1504879494.41,13305,17.25,73698.3,10.41,-26.07,-25.87,0,*46
1504879495.64,13306,17.25,73698.8,10.45,-25.49,-25.35,0,*41
1504879496.87,13307,17.25,73702.0,10.45,-25.39,-25.13,0,*43
1504879498.09,13308,17.25,73702.5,10.49,-25.35,-25.13,0,*4C
1504879499.35,13309,17.25,73702.8,10.49,-25.65,-25.45,0,*4B
1504879500.6,13310,17.25,73700.5,10.49,-26.13,-25.91,0,*48
1504879501.86,13311,17.25,73702.8,10.49,-26.33,-25.91,0,*4B
1504879503.12,13312,17.25,73700.5,10.49,-25.81,-25.65,0,*49
1504879504.38,13313,17.25,73706.5,10.49,-26.77,-26.61,0,*45
1504879505.63,13314,17.25,73700.8,10.49,-27.13,-26.81,0,*4F
1504879506.92,13315,17.25,73704.0,10.49,-26.97,-26.77,0,*4A
1504879508.18,13316,17.25,73706.8,10.49,-26.49,-26.33,0,*4A
1504879509.45,13317,17.25,73706.3,10.47,-26.33,-25.97,0,*45
1504879510.73,13318,17.25,73704.3,10.49,-26.17,-25.81,0,*45
1504879511.99,13319,17.25,73708.0,10.51,-26.13,-25.75,0,*42
1504879513.22,13320,17.25,73706.5,10.51,-25.81,-25.49,0,*4F
1504879514.48,13321,17.25,73710.3,10.51,-26.13,-25.81,0,*42
1504879515.71,13322,17.25,73708.5,10.51,-26.49,-26.29,0,*4F
1504879516.95,13323,17.25,73706.3,10.51,-26.65,-26.33,0,*4B
1504879518.17,13324,17.25,73704.5,10.51,-27.19,-27.07,0,*40
1504879519.38,13325,17.25,73698.8,10.51,-26.61,-26.45,0,*48
1504879520.6,13326,17.25,73700.8,10.51,-26.13,-25.91,0,*44
1504879521.84,13327,17.25,73700.8,10.51,-26.49,-26.33,0,*41
1504879523.09,13328,17.25,73700.8,10.49,-25.75,-25.35,0,*4E
1504879524.34,13329,17.25,73702.0,10.53,-25.23,-25.03,0,*42
1504879525.6,13330,17.25,73700.3,10.53,-25.55,-25.13,0,*4A
1504879526.89,13331,17.25,73700.8,10.53,-24.71,-24.41,0,*4A
1504879528.13,13332,17.25,73700.3,10.55,-24.51,-24.21,0,*4B
1504879529.38,13333,17.25,73700.3,10.57,-24.83,-24.57,0,*46
1504879530.58,13334,17.25,73700.8,10.59,-24.93,-24.61,0,*4B
1504879531.8,13335,17.25,73700.0,10.59,-24.97,-24.67,0,*48
1504879533.04,13336,17.25,73704.3,10.61,-24.57,-24.15,0,*49
1504879534.24,13337,17.25,73704.5,10.63,-25.23,-25.09,0,*44
1504879535.53,13338,17.25,73704.0,10.61,-25.75,-25.55,0,*43
1504879536.78,13339,17.25,73704.5,10.61,-26.29,-26.07,0,*4C
1504879538.0,13340,17.25,73702.0,10.61,-26.87,-26.61,0,*46
1504879539.22,13341,17.25,73706.5,10.61,-26.45,-26.23,0,*4F
1504879540.46,13342,17.25,73700.3,10.61,-27.13,-26.93,0,*45
1504879541.69,13343,17.25,73700.0,10.59,-27.13,-26.81,0,*4C
1504879542.92,13344,17.25,73696.5,10.59,-27.13,-26.93,0,*48
1504879544.18,13345,17.25,73702.8,10.57,-28.21,-28.15,0,*49
1504879545.4,13346,17.25,73706.8,10.57,-27.89,-27.71,0,*4A
1504879546.66,13347,17.25,73706.8,10.55,-26.97,-26.81,0,*49
1504879547.87,13348,17.25,73706.5,10.55,-25.87,-25.65,0,*4D
1504879549.11,13349,17.25,73706.3,10.55,-25.87,-25.55,0,*4F
1504879550.36,13350,17.25,73700.8,10.55,-27.19,-26.97,0,*4F
1504879551.61,13351,17.25,73702.3,10.55,-27.39,-27.35,0,*45
1504879552.84,13352,17.25,73704.0,10.57,-27.71,-27.55,0,*4E
1504879554.13,13353,17.25,73702.8,10.53,-28.25,-28.25,0,*4D
1504879555.38,13354,17.25,73698.3,10.51,-27.45,-27.19,0,*41
1504879556.63,13355,17.25,73702.5,10.53,-26.45,-26.29,0,*41
1504879557.84,13356,17.25,73704.3,10.51,-27.67,-27.51,0,*4F
1504879559.08,13357,17.25,73702.5,10.47,-27.51,-27.35,0,*4E
1504879560.36,13358,17.25,73704.5,10.49,-26.33,-26.17,0,*4B
1504879561.63,13359,17.25,73706.5,10.49,-27.19,-26.97,0,*4B
1504879562.89,13360,17.25,73706.8,10.49,-26.93,-26.65,0,*4F
1504879564.16,13361,17.25,73704.5,10.47,-26.33,-26.13,0,*4B
1504879565.42,13362,17.25,73704.5,10.49,-26.33,-26.07,0,*43
1504879566.68,13363,17.25,73702.5,10.49,-26.49,-26.29,0,*43
1504879567.97,13364,17.25,73700.3,10.49,-26.29,-25.97,0,*44
1504879569.22,13365,17.31,73704.3,10.49,-25.91,-25.81,0,*42
1504879570.48,13366,17.25,73702.8,10.49,-25.75,-25.61,0,*45
1504879571.76,13367,17.25,73700.8,10.49,-26.13,-25.81,0,*49
1504879573.0,13368,17.25,73696.0,10.51,-25.75,-25.49,0,*48
1504879574.2,13369,17.25,73700.3,10.51,-25.49,-25.35,0,*4D
1504879575.45,13370,17.25,73704.8,10.53,-25.45,-25.23,0,*4C
1504879576.71,13371,17.25,73704.5,10.53,-25.75,-25.61,0,*48
1504879577.95,13372,17.25,73704.3,10.55,-25.71,-25.39,0,*44
1504879579.18,13373,17.25,73700.0,10.57,-25.49,-25.23,0,*47
1504879580.43,13374,17.31,73704.0,10.57,-25.55,-25.35,0,*4A
1504879581.64,13375,17.31,73706.3,10.55,-25.39,-25.23,0,*44
1504879582.86,13376,17.25,73704.5,10.59,-24.97,-24.67,0,*4F
1504879584.14,13377,17.31,73706.8,10.57,-25.81,-25.55,0,*46
1504879585.36,13378,17.31,73704.3,10.57,-26.49,-26.23,0,*4C
1504879586.6,13379,17.31,73704.3,10.59,-25.97,-25.65,0,*42
1504879587.8,13380,17.25,73702.5,10.59,-26.49,-26.45,0,*45
1504879589.08,13381,17.25,73704.3,10.57,-26.81,-26.55,0,*4F
1504879590.37,13382,17.25,73704.8,10.57,-25.97,-25.71,0,*4D
1504879591.65,13383,17.31,73706.0,10.57,-26.17,-25.97,0,*4F
1504879592.92,13384,17.25,73706.8,10.57,-25.71,-25.49,0,*48
1504879594.14,13385,17.25,73702.0,10.59,-25.65,-25.45,0,*4E
1504879595.4,13386,17.25,73706.0,10.59,-25.29,-25.03,0,*47
1504879596.62,13387,17.25,73702.0,10.59,-24.97,-24.67,0,*41
1504879597.86,13388,17.25,73704.0,10.61,-25.09,-24.87,0,*4D
1504879599.11,13389,17.25,73700.3,10.61,-25.29,-24.97,0,*4F
1504879600.34,13390,17.25,73702.3,10.61,-25.87,-25.61,0,*4B
1504879601.54,13391,17.25,73702.5,10.63,-26.39,-26.07,0,*4D
1504879602.79,13392,17.25,73702.0,10.63,-26.71,-26.55,0,*45
1504879604.03,13393,17.31,73700.3,10.63,-26.07,-25.71,0,*40
1504879605.25,13394,17.25,73694.3,10.63,-26.13,-25.91,0,*4C
1504879606.46,13395,17.25,73692.0,10.63,-26.07,-25.87,0,*4F
1504879607.71,13396,17.31,73692.8,10.63,-25.71,-25.45,0,*40
1504879608.95,13397,17.31,73692.5,10.63,-26.07,-25.75,0,*40
1504879610.2,13398,17.31,73694.0,10.63,-25.75,-25.45,0,*4A
1504879611.4,13399,17.25,73692.8,10.67,-25.65,-25.39,0,*45
1504879612.64,13400,17.25,73692.8,10.63,-26.07,-25.71,0,*4D
1504879613.86,13401,17.31,73696.8,10.67,-25.61,-25.45,0,*4C
1504879615.06,13402,17.25,73694.0,10.63,-27.55,-27.55,0,*4D
1504879616.31,13403,17.31,73696.8,10.61,-27.61,-27.55,0,*49
1504879617.54,13404,17.25,73694.3,10.61,-27.07,-26.87,0,*40
1504879618.79,13405,17.25,73694.3,10.61,-26.29,-26.07,0,*44
1504879620.07,13406,17.25,73698.8,10.61,-26.97,-26.77,0,*45
1504879621.3,13407,17.25,73698.0,10.59,-26.45,-26.13,0,*42
1504879622.53,13408,17.31,73698.3,10.61,-26.45,-26.23,0,*45
1504879623.78,13409,17.31,73702.0,10.59,-26.29,-25.97,0,*49
1504879625.04,13410,17.31,73700.8,10.61,-25.55,-25.39,0,*46
1504879626.32,13411,17.31,73704.0,10.61,-25.75,-25.55,0,*4F
1504879627.57,13412,17.31,73706.0,10.61,-25.61,-25.29,0,*42
1504879628.82,13413,17.31,73706.5,10.61,-25.29,-25.13,0,*46
1504879630.06,13414,17.31,73710.3,10.61,-26.13,-25.91,0,*41
1504879631.32,13415,17.31,73704.8,10.61,-25.55,-25.13,0,*4B
1504879632.57,13416,17.31,73710.0,10.67,-25.03,-24.71,0,*48
1504879633.77,13417,17.31,73708.5,10.67,-25.49,-25.19,0,*48
1504879635.0,13418,17.31,73708.3,10.67,-25.81,-25.49,0,*46
1504879636.2,13419,17.31,73708.0,10.63,-26.23,-26.07,0,*41
1504879637.42,13420,17.31,73706.0,10.63,-26.87,-26.55,0,*42
1504879638.62,13421,17.25,73702.5,10.67,-25.91,-25.65,0,*43
1504879639.88,13422,17.31,73704.5,10.63,-26.29,-25.97,0,*49
1504879641.13,13423,17.31,73706.5,10.67,-26.17,-25.81,0,*46
1504879642.35,13424,17.25,73702.8,10.67,-26.49,-26.17,0,*46
1504879643.55,13425,17.25,73700.5,10.67,-26.23,-26.03,0,*4E
1504879644.79,13426,17.31,73702.3,10.67,-26.71,-26.17,0,*4F
1504879645.99,13427,17.31,73704.5,10.67,-26.23,-26.03,0,*4C
1504879647.19,13428,17.31,73700.0,10.67,-26.23,-26.03,0,*43
1504879648.42,13429,17.31,73702.8,10.67,-25.71,-25.35,0,*40
1504879649.62,13430,17.25,73700.3,10.67,-25.49,-25.19,0,*4D
1504879650.84,13431,17.25,73702.5,10.67,-25.55,-25.23,0,*48
1504879652.07,13432,17.31,73702.8,10.69,-24.83,-24.47,0,*4C
1504879653.3,13433,17.31,73702.8,10.71,-24.77,-24.47,0,*4F
1504879654.55,13434,17.31,73702.5,10.71,-24.87,-24.51,0,*40
1504879655.81,13435,17.25,73698.5,10.73,-24.71,-24.41,0,*4B
1504879657.04,13436,17.31,73702.5,10.73,-25.61,-25.29,0,*47
1504879658.26,13437,17.31,73700.0,10.73,-25.45,-25.13,0,*49
1504879659.48,13438,17.31,73704.0,10.73,-24.97,-24.71,0,*4D
1504879660.67,13439,17.31,73700.0,10.73,-24.97,-24.57,0,*48
1504879661.9,13440,17.31,73702.0,10.73,-24.83,-24.57,0,*43
1504879663.15,13441,17.31,73700.3,10.75,-24.83,-24.57,0,*44
1504879664.4,13442,17.31,73702.5,10.75,-25.45,-25.09,0,*46
1504879665.63,13443,17.31,73706.3,10.77,-26.03,-25.71,0,*4B
1504879666.87,13444,17.31,73700.3,10.77,-26.03,-25.75,0,*48
1504879668.06,13445,17.31,73702.0,10.77,-25.39,-25.09,0,*48
1504879669.28,13446,17.31,73706.3,10.77,-25.23,-25.03,0,*4A
1504879670.55,13447,17.31,73700.0,10.79,-25.29,-25.03,0,*4F
1504879671.82,13448,17.31,73702.8,10.79,-24.87,-24.67,0,*46
1504879673.07,13449,17.31,73702.8,10.79,-25.13,-24.87,0,*45
1504879674.35,13450,17.31,73700.3,10.79,-26.13,-25.81,0,*49
1504879675.58,13451,17.31,73702.8,10.79,-26.65,-26.45,0,*42
1504879676.81,13452,17.31,73698.5,10.79,-25.49,-25.19,0,*46
1504879678.05,13453,17.31,73700.0,10.79,-25.19,-24.87,0,*44
1504879679.3,13454,17.31,73700.8,10.79,-25.13,-24.67,0,*47
1504879680.54,13455,17.31,73700.0,10.79,-25.45,-25.19,0,*4D
1504879681.77,13456,17.31,73700.3,10.81,-25.49,-25.03,0,*4E
1504879683.01,13457,17.31,73700.5,10.81,-25.03,-24.67,0,*42
1504879684.25,13458,17.31,73696.8,10.83,-25.29,-24.97,0,*48
1504879685.47,13459,17.31,73698.5,10.83,-25.13,-24.77,0,*4E
1504879686.71,13460,17.31,73700.5,10.83,-25.09,-24.67,0,*4E
1504879687.96,13461,17.31,73698.3,10.83,-25.29,-25.13,0,*4F
1504879689.2,13462,17.31,73698.0,10.83,-25.45,-25.09,0,*4D
1504879690.43,13463,17.25,73694.5,10.83,-25.39,-25.09,0,*47
1504879691.71,13464,17.31,73696.3,10.83,-25.97,-25.75,0,*4F
1504879692.93,13465,17.31,73698.8,10.83,-26.39,-26.07,0,*4F
1504879694.16,13466,17.25,73694.3,10.83,-26.07,-25.65,0,*46
1504879695.41,13467,17.31,73696.0,10.83,-25.55,-25.23,0,*41